Tracking 30995 objects as of 7-Jul-2025
HD Live streaming from Space Station
objects crossing your sky now

MOZHAYETS 4

Track MOZHAYETS 4 now!
10-day predictions
MOZHAYETS 4 is classified as:


NORAD ID: 27939
Int'l Code: 2003-042A
Perigee: 653.4 km
Apogee: 667.7 km
Inclination: 98.3 °
Period: 97.8 minutes
Semi major axis: 7031 km
RCS: 0.7646 m2 (medium)
Launch date: September 27, 2003
Source: Commonwealth of Independent States (former USSR) (CIS)
Launch site: PLESETSK MISSILE AND SPACE COMPLEX (PKMTR)

Uplink (MHz):
Downlink (MHz): 432.098
Beacon (MHz): 432.098/435.352
Mode: CW
Call sign:
Status: Unknown

Your satellite tracking list
Your tracking list is empty




NASA's NSSDC Master Catalog

Two Line Element Set (TLE):
1 27939U 03042A   25187.86780131  .00000778  00000-0  13113-3 0  9990
2 27939  98.3299 357.9817 0010158 285.2756 211.7261 14.72404654164842
Source of the keplerian elements: Caltech